| time (UTC) | temp C | wind direction | speed KPH | gust KPH | rain 1hr cm | rain 24hr cm | rain mn cm | humidity % | barometer mb |
| 20260904094119 | 10 | 224 | 0.0 | 0.0 | 0.00 | 0.00 | 0.00 | 84 | 1022.2 |
| 20260904093620 | 10 | 224 | 0.0 | 0.0 | 0.00 | 0.03 | 0.00 | 84 | 1022.2 |
| 20260904093119 | 10 | 224 | 0.0 | 0.0 | 0.00 | 0.03 | 0.00 | 82 | 1022.1 |
| 20260904092620 | 10 | 224 | 0.0 | 0.0 | 0.00 | 0.03 | 0.00 | 82 | 1022.1 |
| 20260904092119 | 10 | 224 | 0.0 | 0.0 | 0.00 | 0.03 | 0.00 | 81 | 1022.2 |
| 20260904091620 | 10 | 224 | 0.0 | 0.0 | 0.00 | 0.03 | 0.00 | 79 | 1022.2 |
| 20260904091119 | 10 | 224 | 0.0 | 0.0 | 0.00 | 0.03 | 0.00 | 78 | 1022.1 |
| 20260904090618 | 10 | 224 | 0.0 | 0.0 | 0.00 | 0.03 | 0.00 | 79 | 1022.2 |
| 20260904090119 | 10 | 224 | 0.0 | 0.0 | 0.00 | 0.03 | 0.00 | 79 | 1022.1 |
| 20260904085618 | 10 | 224 | 0.0 | 0.0 | 0.00 | 0.03 | 0.00 | 80 | 1022.2 |
| 20260904085119 | 10 | 224 | 0.0 | 0.0 | 0.00 | 0.03 | 0.00 | 80 | 1022.1 |
| 20260904084618 | 10 | 224 | 0.0 | 0.0 | 0.00 | 0.03 | 0.00 | 81 | 1022.1 |
| 20260904084119 | 10 | 224 | 0.0 | 0.0 | 0.00 | 0.03 | 0.00 | 80 | 1022.1 |
| 20260904083618 | 10 | 224 | 0.0 | 0.0 | 0.00 | 0.03 | 0.00 | 80 | 1022.1 |
| 20260904083119 | 10 | 224 | 0.0 | 0.0 | 0.00 | 0.03 | 0.00 | 79 | 1022.2 |
| 20260904082617 | 10 | 224 | 0.0 | 0.0 | 0.00 | 0.03 | 0.00 | 79 | 1022.1 |
| 20260904082117 | 10 | 224 | 0.0 | 0.0 | 0.00 | 0.03 | 0.00 | 78 | 1022.2 |
| 20260904081617 | 10 | 224 | 0.0 | 0.0 | 0.00 | 0.03 | 0.00 | 78 | 1022.2 |
| 20260904081118 | 10 | 224 | 0.0 | 0.0 | 0.00 | 0.03 | 0.00 | 77 | 1022.2 |
| 20260904080618 | 10 | 224 | 0.0 | 0.0 | 0.00 | 0.03 | 0.00 | 78 | 1022.2 |
| 20260904080339 | 10 | 224 | 0.0 | 0.0 | 0.00 | 0.03 | 0.00 | 78 | 1022.2 |
| 20260904075618 | 11 | 224 | 0.0 | 0.0 | 0.00 | 0.03 | 0.00 | 78 | 1022.2 |
| 20260904075118 | 11 | 224 | 0.0 | 0.0 | 0.00 | 0.03 | 0.00 | 78 | 1022.3 |
| 20260904074617 | 11 | 224 | 0.0 | 0.0 | 0.00 | 0.03 | 0.00 | 78 | 1022.2 |
| 20260904074343 | 11 | 224 | 0.0 | 0.0 | 0.00 | 0.03 | 0.00 | 78 | 1022.2 |
| 20260904073616 | 11 | 224 | 0.0 | 0.0 | 0.00 | 0.03 | 0.00 | 77 | 1022.2 |
| 20260904073117 | 11 | 224 | 0.0 | 0.0 | 0.00 | 0.03 | 0.00 | 78 | 1022.3 |
| 20260904072617 | 11 | 224 | 0.0 | 3.2 | 0.00 | 0.03 | 0.00 | 77 | 1022.2 |
| 20260904072118 | 11 | 224 | 0.0 | 3.2 | 0.00 | 0.03 | 0.00 | 77 | 1022.2 |
| 20260904071616 | 11 | 243 | 0.0 | 3.2 | 0.00 | 0.03 | 0.00 | 77 | 1022.1 |
| 20260904071117 | 11 | 235 | 0.0 | 1.6 | 0.00 | 0.03 | 0.00 | 78 | 1022.1 |
| 20260904070615 | 11 | 257 | 0.0 | 0.0 | 0.00 | 0.03 | 0.00 | 78 | 1022.1 |
| 20260904070340 | 11 | 257 | 0.0 | 0.0 | 0.00 | 0.03 | 0.00 | 78 | 1022.1 |
| 20260904065615 | 11 | 257 | 0.0 | 1.6 | 0.00 | 0.03 | 0.03 | 78 | 1022.2 |
| 20260904065115 | 11 | 257 | 0.0 | 1.6 | 0.00 | 0.03 | 0.03 | 78 | 1022.1 |
| 20260904064834 | 11 | 257 | 0.0 | 0.0 | 0.00 | 0.03 | 0.03 | 78 | 1022.0 |
| 20260904064122 | 11 | 257 | 0.0 | 3.2 | 0.00 | 0.03 | 0.03 | 79 | 1022.1 |
| 20260904063616 | 11 | 257 | 0.0 | 3.2 | 0.00 | 0.03 | 0.03 | 79 | 1022.1 |
| 20260904063336 | 11 | 244 | 0.0 | 0.0 | 0.00 | 0.03 | 0.03 | 79 | 1022.0 |
| 20260904062844 | 11 | 244 | 0.0 | 0.0 | 0.00 | 0.03 | 0.03 | 79 | 1022.0 |
| 20260904062342 | 11 | 244 | 0.0 | 0.0 | 0.00 | 0.03 | 0.03 | 79 | 1022.0 |
| 20260904061838 | 11 | 244 | 0.0 | 0.0 | 0.00 | 0.03 | 0.03 | 78 | 1022.0 |
| 20260904061116 | 11 | 243 | 0.0 | 0.0 | 0.00 | 0.03 | 0.03 | 78 | 1022.0 |
| 20260904060614 | 11 | 243 | 0.0 | 1.6 | 0.00 | 0.03 | 0.03 | 78 | 1021.9 |
| 20260904060115 | 11 | 243 | 0.0 | 1.6 | 0.00 | 0.03 | 0.03 | 79 | 1021.9 |
| 20260904055614 | 11 | 186 | 0.0 | 0.0 | 0.00 | 0.03 | 0.03 | 79 | 1022.0 |
| 20260904055343 | 11 | 186 | 0.0 | 0.0 | 0.00 | 0.03 | 0.03 | 78 | 1021.9 |
| 20260904054613 | 11 | 186 | 0.0 | 0.0 | 0.00 | 0.03 | 0.03 | 78 | 1022.1 |
| 20260904054605 | 11 | 186 | 0.0 | 0.0 | 0.00 | 0.03 | 0.03 | 78 | 1022.1 |
| 20260904053613 | 11 | 182 | 0.0 | 0.0 | 0.00 | 0.03 | 0.03 | 78 | 1022.1 |
| 20260904053115 | 11 | 182 | 0.0 | 0.0 | 0.00 | 0.03 | 0.03 | 78 | 1022.1 |
| 20260904052614 | 11 | 182 | 0.0 | 0.0 | 0.00 | 0.03 | 0.03 | 77 | 1022.1 |
| 20260904052113 | 11 | 182 | 0.0 | 0.0 | 0.00 | 0.03 | 0.03 | 77 | 1022.0 |
| 20260904051614 | 11 | 182 | 0.0 | 0.0 | 0.00 | 0.03 | 0.03 | 76 | 1022.0 |
| 20260904051112 | 11 | 251 | 0.0 | 3.2 | 0.00 | 0.03 | 0.03 | 76 | 1022.1 |
| 20260904050614 | 11 | 254 | 0.0 | 3.2 | 0.00 | 0.03 | 0.03 | 76 | 1022.1 |
| 20260904050114 | 12 | 254 | 0.0 | 0.0 | 0.00 | 0.03 | 0.03 | 76 | 1022.2 |
| 20260904045613 | 12 | 309 | 0.0 | 0.0 | 0.00 | 0.03 | 0.03 | 75 | 1022.1 |
| 20260904045113 | 12 | 309 | 0.0 | 1.6 | 0.00 | 0.03 | 0.03 | 74 | 1022.1 |
| 20260904044613 | 12 | 309 | 0.0 | 1.6 | 0.00 | 0.03 | 0.03 | 73 | 1022.1 |
| 20260904044239 | 12 | 248 | 1.6 | 4.8 | 0.00 | 0.03 | 0.03 | 73 | 1022.2 |
| 20260904044142 | 12 | 303 | 1.6 | 3.2 | 0.00 | 0.03 | 0.03 | 72 | 1022.1 |
| 20260904043924 | 12 | 250 | 0.0 | 4.8 | 0.00 | 0.03 | 0.03 | 72 | 1022.2 |
| 20260904043055 | 12 | 248 | 0.0 | 3.2 | 0.00 | 0.03 | 0.03 | 73 | 1022.2 |
| 20260904042114 | 12 | 238 | 0.0 | 0.0 | 0.00 | 0.03 | 0.03 | 74 | 1022.2 |
| 20260904041838 | 12 | 238 | 0.0 | 3.2 | 0.00 | 0.03 | 0.03 | 73 | 1022.2 |
| 20260904041114 | 12 | 238 | 0.0 | 3.2 | 0.00 | 0.03 | 0.03 | 74 | 1022.2 |
| 20260904040834 | 12 | 251 | 0.0 | 0.0 | 0.00 | 0.03 | 0.03 | 74 | 1022.1 |
| 20260904040340 | 12 | 251 | 0.0 | 0.0 | 0.00 | 0.03 | 0.03 | 74 | 1022.0 |
| 20260904035615 | 12 | 240 | 0.0 | 0.0 | 0.00 | 0.03 | 0.03 | 74 | 1022.1 |
| 20260904035111 | 12 | 240 | 0.0 | 0.0 | 0.00 | 0.03 | 0.03 | 74 | 1022.0 |
| 20260904034612 | 12 | 240 | 0.0 | 0.0 | 0.00 | 0.03 | 0.03 | 75 | 1022.0 |
| 20260904034111 | 12 | 248 | 0.0 | 0.0 | 0.00 | 0.03 | 0.03 | 74 | 1022.0 |
| 20260904033612 | 12 | 248 | 0.0 | 0.0 | 0.00 | 0.03 | 0.03 | 73 | 1021.9 |
| 20260904033334 | 12 | 248 | 0.0 | 0.0 | 0.00 | 0.03 | 0.03 | 73 | 1021.9 |
| 20260904032612 | 12 | 248 | 0.0 | 0.0 | 0.00 | 0.03 | 0.03 | 73 | 1021.9 |
| 20260904032111 | 12 | 248 | 0.0 | 0.0 | 0.00 | 0.03 | 0.03 | 73 | 1021.9 |
| 20260904031611 | 12 | 257 | 0.0 | 0.0 | 0.00 | 0.03 | 0.03 | 73 | 1021.9 |
| 20260904031111 | 12 | 340 | 0.0 | 0.0 | 0.00 | 0.03 | 0.03 | 73 | 1021.9 |
| 20260904030610 | 12 | 340 | 0.0 | 0.0 | 0.00 | 0.03 | 0.03 | 73 | 1021.8 |
| 20260904030109 | 12 | 340 | 0.0 | 0.0 | 0.00 | 0.03 | 0.03 | 73 | 1021.8 |
| 20260904025610 | 12 | 272 | 0.0 | 0.0 | 0.00 | 0.03 | 0.03 | 72 | 1021.8 |
| 20260904025333 | 12 | 235 | 0.0 | 0.0 | 0.00 | 0.03 | 0.03 | 72 | 1021.8 |
| 20260904024610 | 12 | 235 | 0.0 | 0.0 | 0.00 | 0.03 | 0.03 | 72 | 1021.8 |
| 20260904024109 | 12 | 216 | 0.0 | 0.0 | 0.00 | 0.03 | 0.03 | 71 | 1021.8 |
| 20260904023610 | 13 | 214 | 0.0 | 0.0 | 0.00 | 0.03 | 0.03 | 70 | 1021.8 |
| 20260904023109 | 13 | 358 | 0.0 | 0.0 | 0.00 | 0.03 | 0.03 | 68 | 1021.7 |
| 20260904022831 | 13 | 358 | 0.0 | 0.0 | 0.00 | 0.03 | 0.03 | 66 | 1021.6 |
| 20260904022108 | 13 | 13 | 0.0 | 0.0 | 0.00 | 0.03 | 0.03 | 64 | 1021.5 |
| 20260904021609 | 13 | 307 | 0.0 | 0.0 | 0.00 | 0.03 | 0.03 | 64 | 1021.5 |
| 20260904021107 | 13 | 334 | 0.0 | 0.0 | 0.00 | 0.03 | 0.03 | 63 | 1021.5 |
| 20260904020609 | 13 | 314 | 0.0 | 0.0 | 0.00 | 0.03 | 0.03 | 62 | 1021.5 |
| 20260904020107 | 14 | 314 | 0.0 | 4.8 | 0.00 | 0.03 | 0.03 | 61 | 1021.4 |
| 20260904015608 | 14 | 324 | 0.0 | 4.8 | 0.00 | 0.03 | 0.03 | 61 | 1021.5 |
| 20260904015107 | 14 | 292 | 1.6 | 4.8 | 0.00 | 0.03 | 0.03 | 60 | 1021.4 |
| 20260904014607 | 14 | 313 | 1.6 | 6.4 | 0.00 | 0.03 | 0.03 | 60 | 1021.3 |
| 20260904014115 | 14 | 305 | 1.6 | 6.4 | 0.00 | 0.03 | 0.03 | 60 | 1021.4 |
| 20260904013608 | 14 | 300 | 1.6 | 4.8 | 0.00 | 0.03 | 0.03 | 60 | 1021.4 |
| 20260904013109 | 14 | 299 | 0.0 | 6.4 | 0.00 | 0.03 | 0.03 | 61 | 1021.5 |
| 20260904012608 | 14 | 11 | 1.6 | 6.4 | 0.00 | 0.03 | 0.03 | 60 | 1021.4 |
| 20260904012109 | 14 | 296 | 1.6 | 8.0 | 0.00 | 0.03 | 0.03 | 60 | 1021.5 |
| 20260904011836 | 14 | 319 | 3.2 | 16.1 | 0.00 | 0.03 | 0.03 | 60 | 1021.5 |
| 20260904011107 | 14 | 219 | 3.2 | 16.1 | 0.00 | 0.03 | 0.03 | 60 | 1021.4 |
| 20260904010608 | 14 | 302 | 3.2 | 8.0 | 0.00 | 0.03 | 0.03 | 60 | 1021.4 |
| 20260904010106 | 14 | 312 | 3.2 | 6.4 | 0.00 | 0.03 | 0.03 | 60 | 1021.4 |
| 20260904005608 | 14 | 316 | 1.6 | 9.7 | 0.00 | 0.03 | 0.03 | 60 | 1021.4 |
| 20260904005108 | 14 | 293 | 1.6 | 9.7 | 0.00 | 0.03 | 0.03 | 60 | 1021.4 |
| 20260904004835 | 14 | 324 | 1.6 | 4.8 | 0.00 | 0.03 | 0.03 | 59 | 1021.4 |
| 20260904004107 | 14 | 306 | 1.6 | 6.4 | 0.00 | 0.03 | 0.03 | 60 | 1021.4 |
| 20260904003830 | 14 | 293 | 3.2 | 6.4 | 0.00 | 0.03 | 0.03 | 61 | 1021.4 |
| 20260904003106 | 14 | 300 | 3.2 | 6.4 | 0.00 | 0.03 | 0.03 | 62 | 1021.4 |
| 20260904002607 | 14 | 298 | 1.6 | 6.4 | 0.00 | 0.03 | 0.03 | 63 | 1021.4 |
| 20260904002107 | 14 | 300 | 3.2 | 6.4 | 0.00 | 0.03 | 0.03 | 63 | 1021.4 |
| 20260904001606 | 15 | 320 | 1.6 | 4.8 | 0.00 | 0.03 | 0.03 | 62 | 1021.4 |
| 20260904001109 | 15 | 312 | 1.6 | 4.8 | 0.00 | 0.03 | 0.03 | 62 | 1021.4 |
| 20260904001100 | 15 | 306 | 1.6 | 4.8 | 0.00 | 0.03 | 0.03 | 61 | 1021.4 |
| 20260904000108 | 15 | 312 | 1.6 | 4.8 | 0.00 | 0.03 | 0.03 | 61 | 1021.4 |
| 20260903235610 | 15 | 300 | 1.6 | 4.8 | 0.00 | 0.03 | 0.03 | 61 | 1021.4 |
| 20260903235105 | 15 | 329 | 1.6 | 4.8 | 0.00 | 0.03 | 0.03 | 61 | 1021.4 |
| 20260903234608 | 15 | 303 | 3.2 | 4.8 | 0.00 | 0.03 | 0.03 | 61 | 1021.5 |
| 20260903234106 | 15 | 351 | 3.2 | 9.7 | 0.00 | 0.03 | 0.03 | 58 | 1021.4 |
| 20260903233606 | 15 | 324 | 3.2 | 9.7 | 0.00 | 0.03 | 0.03 | 57 | 1021.4 |
| 20260903233106 | 15 | 331 | 3.2 | 9.7 | 0.00 | 0.03 | 0.03 | 56 | 1021.4 |
| 20260903232606 | 15 | 290 | 1.6 | 9.7 | 0.00 | 0.03 | 0.03 | 57 | 1021.5 |
| 20260903232105 | 15 | 298 | 3.2 | 9.7 | 0.00 | 0.03 | 0.03 | 56 | 1021.4 |
| 20260903231606 | 15 | 355 | 3.2 | 9.7 | 0.00 | 0.03 | 0.03 | 56 | 1021.5 |
| 20260903231105 | 15 | 309 | 3.2 | 9.7 | 0.00 | 0.03 | 0.03 | 55 | 1021.5 |
| 20260903230610 | 15 | 3 | 1.6 | 8.0 | 0.00 | 0.03 | 0.03 | 57 | 1021.5 |
| 20260903230105 | 15 | 309 | 3.2 | 9.7 | 0.00 | 0.03 | 0.03 | 56 | 1021.6 |
| 20260903225601 | 15 | 331 | 3.2 | 9.7 | 0.00 | 0.03 | 0.03 | 56 | 1021.8 |
| 20260903225105 | 15 | 331 | 3.2 | 8.0 | 0.00 | 0.03 | 0.03 | 57 | 1021.6 |
| 20260903224604 | 15 | 343 | 3.2 | 8.0 | 0.00 | 0.03 | 0.03 | 58 | 1021.6 |
| 20260903224329 | 15 | 290 | 3.2 | 8.0 | 0.00 | 0.03 | 0.03 | 58 | 1021.6 |
| 20260903223604 | 15 | 306 | 3.2 | 8.0 | 0.00 | 0.03 | 0.03 | 57 | 1021.7 |
| 20260903223106 | 15 | 296 | 4.8 | 8.0 | 0.00 | 0.03 | 0.03 | 58 | 1021.6 |
| 20260903222604 | 16 | 300 | 3.2 | 8.0 | 0.00 | 0.03 | 0.03 | 56 | 1021.6 |
| 20260903222104 | 16 | 334 | 3.2 | 8.0 | 0.00 | 0.03 | 0.03 | 56 | 1021.5 |
| 20260903221601 | 16 | 319 | 3.2 | 8.0 | 0.00 | 0.03 | 0.03 | 56 | 1021.5 |
| 20260903221322 | 15 | 343 | 1.6 | 6.4 | 0.00 | 0.03 | 0.03 | 59 | 1021.4 |
| 20260903220604 | 15 | 281 | 1.6 | 9.7 | 0.00 | 0.03 | 0.03 | 60 | 1021.4 |
| 20260903215604 | 16 | 293 | 3.2 | 8.0 | 0.00 | 0.03 | 0.03 | 55 | 1021.4 |
| 20260903215549 | 17 | 48 | 6.4 | 14.5 | 0.00 | 0.03 | 0.03 | 51 | 1021.4 |
| 20260903214603 | 18 | 47 | 8.0 | 16.1 | 0.00 | 0.03 | 0.03 | 45 | 1021.4 |
| 20260903214105 | 18 | 107 | 6.4 | 16.1 | 0.00 | 0.03 | 0.03 | 41 | 1021.0 |
| 20260903213100 | 18 | 99 | 6.4 | 22.5 | 0.00 | 0.03 | 0.03 | 41 | 1021.1 |
| 20260903212559 | 18 | 130 | 8.0 | 22.5 | 0.00 | 0.03 | 0.03 | 42 | 1021.0 |
| 20260903212326 | 18 | 102 | 6.4 | 20.9 | 0.00 | 0.03 | 0.03 | 43 | 1021.0 |
| 20260903211602 | 18 | 93 | 8.0 | 24.1 | 0.00 | 0.03 | 0.03 | 43 | 1021.0 |
| 20260903211103 | 18 | 107 | 9.7 | 25.7 | 0.00 | 0.03 | 0.03 | 43 | 1020.9 |
| 20260903210602 | 18 | 99 | 11.3 | 25.7 | 0.00 | 0.03 | 0.03 | 43 | 1020.9 |
| 20260903205601 | 18 | 128 | 16.1 | 27.4 | 0.00 | 0.03 | 0.03 | 44 | 1020.8 |
| 20260903205101 | 18 | 147 | 12.9 | 22.5 | 0.00 | 0.03 | 0.03 | 43 | 1020.7 |
| 20260903204602 | 18 | 58 | 12.9 | 20.9 | 0.00 | 0.03 | 0.03 | 44 | 1020.8 |
| 20260903204540 | 18 | 121 | 9.7 | 20.9 | 0.00 | 0.03 | 0.03 | 45 | 1020.7 |
| 20260903203603 | 18 | 96 | 12.9 | 25.7 | 0.00 | 0.03 | 0.03 | 45 | 1020.7 |
| 20260903203100 | 18 | 100 | 12.9 | 25.7 | 0.00 | 0.03 | 0.03 | 45 | 1020.6 |
| 20260903202601 | 18 | 133 | 11.3 | 25.7 | 0.00 | 0.03 | 0.03 | 46 | 1020.6 |
| 20260903202320 | 18 | 147 | 12.9 | 25.7 | 0.00 | 0.03 | 0.03 | 44 | 1020.7 |
| 20260903201559 | 18 | 130 | 12.9 | 20.9 | 0.00 | 0.03 | 0.03 | 44 | 1020.7 |
| 20260903201100 | 19 | 118 | 11.3 | 29.0 | 0.00 | 0.03 | 0.03 | 44 | 1020.7 |
| 20260903200559 | 19 | 140 | 14.5 | 29.0 | 0.00 | 0.03 | 0.03 | 43 | 1020.6 |
| 20260903200100 | 19 | 62 | 8.0 | 17.7 | 0.00 | 0.03 | 0.03 | 44 | 1020.7 |
| 20260903195826 | 18 | 96 | 3.2 | 19.3 | 0.00 | 0.03 | 0.03 | 46 | 1020.8 |
| 20260903195102 | 18 | 114 | 9.7 | 19.3 | 0.00 | 0.03 | 0.03 | 43 | 1020.8 |
| 20260903194600 | 18 | 131 | 8.0 | 24.1 | 0.00 | 0.03 | 0.03 | 43 | 1020.8 |
| 20260903194319 | 19 | 141 | 12.9 | 24.1 | 0.00 | 0.03 | 0.03 | 42 | 1020.8 |
| 20260903193600 | 19 | 52 | 12.9 | 24.1 | 0.00 | 0.03 | 0.03 | 45 | 1020.7 |
| 20260903193100 | 19 | 140 | 9.7 | 19.3 | 0.00 | 0.03 | 0.03 | 45 | 1020.7 |
| 20260903192821 | 18 | 59 | 6.4 | 19.3 | 0.00 | 0.03 | 0.03 | 45 | 1020.7 |
| 20260903192321 | 18 | 114 | 11.3 | 19.3 | 0.00 | 0.03 | 0.03 | 47 | 1020.6 |
| 20260903191823 | 18 | 118 | 9.7 | 25.7 | 0.00 | 0.03 | 0.03 | 47 | 1020.5 |
| 20260903191101 | 18 | 133 | 8.0 | 25.7 | 0.00 | 0.03 | 0.03 | 46 | 1020.6 |
| 20260903190601 | 18 | 59 | 8.0 | 20.9 | 0.00 | 0.03 | 0.03 | 46 | 1020.6 |
| 20260903190105 | 18 | 61 | 9.7 | 20.9 | 0.00 | 0.03 | 0.03 | 47 | 1020.6 |
| 20260903185559 | 18 | 54 | 9.7 | 20.9 | 0.00 | 0.03 | 0.03 | 40 | 1020.6 |
| 20260903185100 | 18 | 120 | 9.7 | 20.9 | 0.00 | 0.03 | 0.03 | 40 | 1020.6 |
| 20260903184559 | 18 | 69 | 8.0 | 17.7 | 0.00 | 0.03 | 0.03 | 42 | 1020.6 |
| 20260903184059 | 18 | 104 | 9.7 | 17.7 | 0.00 | 0.03 | 0.03 | 42 | 1020.6 |
| 20260903183819 | 18 | 102 | 4.8 | 14.5 | 0.00 | 0.03 | 0.03 | 45 | 1020.7 |
| 20260903183056 | 18 | 76 | 8.0 | 11.3 | 0.00 | 0.03 | 0.03 | 45 | 1020.7 |
| 20260903182813 | 18 | 155 | 3.2 | 11.3 | 0.00 | 0.03 | 0.03 | 43 | 1020.7 |
| 20260903182318 | 18 | 128 | 6.4 | 16.1 | 0.00 | 0.03 | 0.03 | 46 | 1020.7 |
| 20260903181558 | 18 | 55 | 6.4 | 16.1 | 0.00 | 0.03 | 0.03 | 47 | 1020.7 |
| 20260903181058 | 18 | 107 | 6.4 | 14.5 | 0.00 | 0.03 | 0.03 | 46 | 1020.7 |
| 20260903180604 | 17 | 134 | 3.2 | 11.3 | 0.00 | 0.03 | 0.03 | 47 | 1020.8 |
| 20260903180318 | 17 | 207 | 3.2 | 11.3 | 0.00 | 0.03 | 0.03 | 46 | 1020.7 |
| 20260903175558 | 17 | 75 | 3.2 | 9.7 | 0.00 | 0.03 | 0.03 | 45 | 1020.7 |
| 20260903175057 | 17 | 89 | 3.2 | 8.0 | 0.00 | 0.03 | 0.03 | 46 | 1020.7 |
| 20260903174559 | 17 | 72 | 1.6 | 8.0 | 0.00 | 0.03 | 0.03 | 46 | 1020.8 |
| 20260903174057 | 17 | 125 | 3.2 | 6.4 | 0.00 | 0.03 | 0.03 | 44 | 1020.7 |
| 20260903173559 | 17 | 52 | 3.2 | 6.4 | 0.00 | 0.03 | 0.03 | 46 | 1020.7 |
| 20260903173057 | 17 | 79 | 1.6 | 6.4 | 0.00 | 0.03 | 0.03 | 43 | 1020.8 |
| 20260903172557 | 17 | 13 | 0.0 | 6.4 | 0.00 | 0.03 | 0.03 | 44 | 1020.6 |
| 20260903172057 | 17 | 66 | 3.2 | 6.4 | 0.00 | 0.03 | 0.03 | 47 | 1020.7 |
| 20260903171559 | 17 | 39 | 1.6 | 4.8 | 0.00 | 0.03 | 0.03 | 45 | 1020.6 |
| 20260903171058 | 17 | 214 | 0.0 | 4.8 | 0.00 | 0.03 | 0.03 | 48 | 1020.6 |
| 20260903170602 | 16 | 355 | 3.2 | 4.8 | 0.00 | 0.03 | 0.03 | 53 | 1020.6 |
| 20260903170055 | 16 | 62 | 1.6 | 11.3 | 0.00 | 0.03 | 0.03 | 53 | 1020.6 |
| 20260903165556 | 16 | 51 | 1.6 | 11.3 | 0.00 | 0.03 | 0.03 | 55 | 1020.5 |
| 20260903165056 | 16 | 350 | 0.0 | 4.8 | 0.00 | 0.03 | 0.03 | 57 | 1020.6 |
| 20260903164557 | 16 | 314 | 1.6 | 9.7 | 0.00 | 0.03 | 0.03 | 59 | 1020.5 |
| 20260903164056 | 15 | 233 | 1.6 | 9.7 | 0.00 | 0.03 | 0.03 | 57 | 1020.5 |
| 20260903163556 | 15 | 269 | 0.0 | 4.8 | 0.00 | 0.03 | 0.03 | 61 | 1020.5 |
| 20260903163055 | 15 | 11 | 3.2 | 6.4 | 0.00 | 0.03 | 0.03 | 62 | 1020.5 |
| 20260903162827 | 15 | 66 | 1.6 | 6.4 | 0.00 | 0.03 | 0.03 | 62 | 1020.5 |
| 20260903162056 | 15 | 345 | 1.6 | 4.8 | 0.00 | 0.03 | 0.03 | 69 | 1020.5 |
| 20260903161559 | 14 | 228 | 0.0 | 3.2 | 0.00 | 0.03 | 0.03 | 72 | 1020.6 |
| 20260903161100 | 14 | 340 | 1.6 | 3.2 | 0.00 | 0.03 | 0.03 | 72 | 1020.5 |
| 20260903160825 | 14 | 47 | 0.0 | 1.6 | 0.00 | 0.03 | 0.03 | 74 | 1020.5 |
| 20260903160534 | 14 | 110 | 0.0 | 1.6 | 0.00 | 0.03 | 0.03 | 80 | 1020.5 |
| 20260903155555 | 13 | 47 | 0.0 | 3.2 | 0.00 | 0.03 | 0.03 | 83 | 1020.6 |
| 20260903155055 | 13 | 155 | 0.0 | 3.2 | 0.00 | 0.03 | 0.03 | 85 | 1020.5 |
| 20260903154556 | 13 | 109 | 0.0 | 3.2 | 0.00 | 0.03 | 0.03 | 87 | 1020.6 |
| 20260903154055 | 12 | 109 | 0.0 | 3.2 | 0.00 | 0.03 | 0.03 | 88 | 1020.7 |
| 20260903153556 | 12 | 75 | 0.0 | 3.2 | 0.00 | 0.03 | 0.03 | 91 | 1020.6 |
| 20260903153053 | 11 | 85 | 0.0 | 3.2 | 0.00 | 0.03 | 0.03 | 91 | 1020.7 |
| 20260903152555 | 11 | 131 | 0.0 | 1.6 | 0.00 | 0.03 | 0.03 | 92 | 1020.8 |
| 20260903152322 | 11 | 131 | 0.0 | 1.6 | 0.00 | 0.03 | 0.03 | 92 | 1020.7 |
| 20260903151554 | 11 | 144 | 0.0 | 1.6 | 0.00 | 0.03 | 0.03 | 92 | 1020.6 |
| 20260903151054 | 11 | 125 | 0.0 | 1.6 | 0.00 | 0.03 | 0.03 | 92 | 1020.6 |
| 20260903150557 | 10 | 159 | 0.0 | 0.0 | 0.00 | 0.03 | 0.03 | 92 | 1020.6 |
| 20260903150053 | 10 | 159 | 0.0 | 0.0 | 0.00 | 0.03 | 0.03 | 93 | 1020.5 |
| 20260903145553 | 10 | 159 | 0.0 | 0.0 | 0.00 | 0.03 | 0.03 | 92 | 1020.6 |
| 20260903145054 | 10 | 159 | 0.0 | 0.0 | 0.00 | 0.03 | 0.03 | 92 | 1020.6 |
| 20260903144555 | 10 | 159 | 0.0 | 0.0 | 0.00 | 0.03 | 0.03 | 92 | 1020.5 |
| 20260903144054 | 10 | 159 | 0.0 | 0.0 | 0.00 | 0.03 | 0.03 | 92 | 1020.5 |
| 20260903143553 | 10 | 159 | 0.0 | 0.0 | 0.00 | 0.03 | 0.03 | 92 | 1020.4 |
| 20260903143054 | 10 | 159 | 0.0 | 0.0 | 0.00 | 0.03 | 0.03 | 92 | 1020.4 |
| 20260903142814 | 10 | 159 | 0.0 | 1.6 | 0.00 | 0.03 | 0.03 | 92 | 1020.3 |
| 20260903142053 | 10 | 159 | 0.0 | 1.6 | 0.00 | 0.03 | 0.03 | 92 | 1020.3 |
| 20260903141553 | 10 | 182 | 0.0 | 0.0 | 0.00 | 0.03 | 0.03 | 91 | 1020.3 |
| 20260903141054 | 10 | 182 | 0.0 | 0.0 | 0.00 | 0.03 | 0.03 | 91 | 1020.2 |
| 20260903140556 | 10 | 182 | 0.0 | 0.0 | 0.00 | 0.03 | 0.03 | 91 | 1020.2 |
| 20260903140317 | 10 | 182 | 0.0 | 0.0 | 0.00 | 0.03 | 0.03 | 92 | 1020.2 |
| 20260903135815 | 10 | 196 | 0.0 | 0.0 | 0.00 | 0.03 | 0.03 | 92 | 1020.1 |
| 20260903135052 | 10 | 196 | 0.0 | 0.0 | 0.00 | 0.03 | 0.03 | 92 | 1020.1 |
| 20260903134552 | 10 | 196 | 0.0 | 0.0 | 0.00 | 0.03 | 0.03 | 91 | 1019.9 |
| 20260903134544 | 10 | 196 | 0.0 | 0.0 | 0.00 | 0.03 | 0.03 | 91 | 1019.9 |
| 20260903133554 | 10 | 196 | 0.0 | 0.0 | 0.00 | 0.03 | 0.03 | 91 | 1019.9 |
| 20260903133051 | 10 | 196 | 0.0 | 0.0 | 0.00 | 0.03 | 0.03 | 91 | 1019.8 |
| 20260903132552 | 10 | 196 | 0.0 | 0.0 | 0.00 | 0.03 | 0.03 | 90 | 1019.8 |
| 20260903132051 | 10 | 196 | 0.0 | 0.0 | 0.00 | 0.03 | 0.03 | 90 | 1019.8 |
| 20260903131558 | 10 | 196 | 0.0 | 0.0 | 0.00 | 0.03 | 0.03 | 90 | 1019.8 |
| 20260903131053 | 10 | 196 | 0.0 | 0.0 | 0.00 | 0.03 | 0.03 | 90 | 1019.8 |
| 20260903130551 | 10 | 196 | 0.0 | 0.0 | 0.00 | 0.03 | 0.03 | 91 | 1019.8 |
| 20260903130051 | 10 | 196 | 0.0 | 0.0 | 0.00 | 0.03 | 0.03 | 91 | 1019.8 |
| 20260903125551 | 11 | 196 | 0.0 | 0.0 | 0.00 | 0.03 | 0.03 | 91 | 1019.6 |
| 20260903125312 | 10 | 196 | 0.0 | 0.0 | 0.00 | 0.03 | 0.03 | 91 | 1019.5 |
| 20260903124551 | 11 | 196 | 0.0 | 0.0 | 0.00 | 0.03 | 0.03 | 91 | 1019.5 |
| 20260903124052 | 11 | 196 | 0.0 | 0.0 | 0.00 | 0.03 | 0.03 | 91 | 1019.4 |
| 20260903123552 | 10 | 196 | 0.0 | 0.0 | 0.00 | 0.03 | 0.03 | 90 | 1019.5 |
| 20260903123544 | 10 | 196 | 0.0 | 0.0 | 0.00 | 0.03 | 0.03 | 90 | 1019.5 |
| 20260903122551 | 10 | 196 | 0.0 | 0.0 | 0.00 | 0.03 | 0.03 | 90 | 1019.4 |
| 20260903122050 | 10 | 196 | 0.0 | 0.0 | 0.00 | 0.03 | 0.03 | 91 | 1019.3 |
| 20260903121551 | 10 | 196 | 0.0 | 0.0 | 0.00 | 0.03 | 0.03 | 91 | 1019.4 |
| 20260903121050 | 10 | 196 | 0.0 | 0.0 | 0.00 | 0.03 | 0.03 | 91 | 1019.3 |
| 20260903120757 | 10 | 196 | 0.0 | 0.0 | 0.00 | 0.03 | 0.03 | 90 | 1019.4 |
| 20260903120644 | 10 | 196 | 0.0 | 0.0 | 0.00 | 0.03 | 0.03 | 91 | 1019.5 |
| 20260903120043 | 10 | 196 | 0.0 | 0.0 | 0.00 | 0.03 | 0.03 | 91 | 1019.5 |
| 20260903115050 | 10 | 197 | 0.0 | 0.0 | 0.00 | 0.03 | 0.03 | 91 | 1019.4 |
| 20260903114551 | 10 | 197 | 0.0 | 0.0 | 0.00 | 0.03 | 0.03 | 91 | 1019.3 |
| 20260903114049 | 10 | 196 | 0.0 | 0.0 | 0.00 | 0.03 | 0.03 | 91 | 1019.3 |
| 20260903113550 | 10 | 219 | 0.0 | 0.0 | 0.00 | 0.03 | 0.03 | 91 | 1019.3 |
| 20260903113050 | 11 | 227 | 0.0 | 0.0 | 0.00 | 0.03 | 0.03 | 91 | 1019.3 |
| 20260903112549 | 11 | 227 | 0.0 | 0.0 | 0.00 | 0.03 | 0.03 | 91 | 1019.3 |
| 20260903112049 | 11 | 227 | 0.0 | 0.0 | 0.00 | 0.03 | 0.03 | 90 | 1019.3 |
| 20260903111548 | 11 | 227 | 0.0 | 0.0 | 0.00 | 0.03 | 0.03 | 90 | 1019.2 |
| 20260903111050 | 11 | 227 | 0.0 | 0.0 | 0.00 | 0.03 | 0.03 | 89 | 1019.1 |
| 20260903110758 | 11 | 227 | 0.0 | 3.2 | 0.00 | 0.03 | 0.03 | 90 | 1019.1 |
| 20260903110648 | 11 | 227 | 0.0 | 3.2 | 0.00 | 0.03 | 0.03 | 89 | 1019.0 |
| 20260903105549 | 11 | 251 | 0.0 | 3.2 | 0.00 | 0.03 | 0.03 | 91 | 1019.0 |
| 20260903105048 | 11 | 245 | 0.0 | 3.2 | 0.00 | 0.03 | 0.03 | 91 | 1018.9 |
| 20260903104548 | 11 | 254 | 0.0 | 3.2 | 0.00 | 0.03 | 0.03 | 91 | 1018.7 |
| 20260903104048 | 11 | 166 | 0.0 | 0.0 | 0.00 | 0.03 | 0.03 | 91 | 1018.9 |
| 20260903103549 | 11 | 168 | 0.0 | 0.0 | 0.03 | 0.03 | 0.03 | 90 | 1019.0 |
| 20260903103049 | 11 | 168 | 0.0 | 1.6 | 0.03 | 0.03 | 0.03 | 90 | 1019.0 |
| 20260903102549 | 11 | 168 | 0.0 | 1.6 | 0.03 | 0.03 | 0.03 | 90 | 1019.2 |
| 20260903102047 | 11 | 166 | 0.0 | 0.0 | 0.03 | 0.03 | 0.03 | 90 | 1019.2 |
| 20260903101810 | 11 | 168 | 0.0 | 0.0 | 0.03 | 0.03 | 0.03 | 90 | 1019.1 |
| 20260903101047 | 11 | 168 | 0.0 | 0.0 | 0.03 | 0.03 | 0.03 | 90 | 1019.1 |
| 20260903100548 | 11 | 168 | 0.0 | 0.0 | 0.03 | 0.03 | 0.03 | 90 | 1019.0 |
| 20260903100314 | 11 | 168 | 0.0 | 0.0 | 0.03 | 0.03 | 0.03 | 89 | 1019.0 |
| 20260903095547 | 11 | 166 | 0.0 | 0.0 | 0.03 | 0.03 | 0.03 | 88 | 1019.1 |
| 20260903095048 | 12 | 165 | 0.0 | 0.0 | 0.03 | 0.03 | 0.03 | 87 | 1019.1 |
| 20260903094548 | 12 | 165 | 0.0 | 1.6 | 0.03 | 0.03 | 0.03 | 86 | 1019.0 |